Location: Fort Worth, Tx
(32.7431°N, 97.3695°W)
Time: 12:52:15
(UTC-04:00)

Tiros 1 - Pass Details

Date: 25 February 2024
Orbit: 625 x 657 km, 48.4° (Epoch: 11 April)

Event Time Altitude Azimuth Distance (km) Brightness Sun altitude
Rises 21:52:12 0° 244° (WSW) 2,960 11.3 -32.0°
Reaches altitude 10° 21:54:36 10° 249° (WSW) 2,054 10.4 -32.5°
Enters shadow 21:57:09 29° 266° (W) 1,184 8.9 -33.0°
